User: anonymous   Login
Location: Newark
(51.0500°N, 12.4500°E)
Time: 10:38:50
(UTC+00:00)
Language:

Explorer 11/Cluster Stage 4 - Orbit

View from above orbital plane
View from above orbital plane
View from above satellite
View from above satellite

Ground track
Ground track

The orbit data is extracted from the following two-line orbital elements,

1   107U 61013A   20049.64885433 +.00000249 +00000-0 +15460-4 0  9990
2   107 028.7863 138.0465 0547213 083.0845 283.1632 14.08899969949315
Epoch (UTC): 18 February 2020 15:34:21
Eccentricity: 0.0547213
inclination: 28.7863°
perigee height: 467 km
apogee height: 1259 km
right ascension of ascending node: 138.0465°
argument of perigee: 83.0845°
revolutions per day: 14.08899969
mean anomaly at epoch: 283.1632°
orbit number at epoch: 94931

The dashed part of the orbit path shows where the satellite is in the earth's shadow,  

DLR